4XCTF LLMZ-LLMZ

Flight info

Callsign 4XCTF
Flight time 0h 20m
Altitude 0
Route CIRCUITS
Aircraft C172/L-SDE/C

Departure

Time 2026-04-12 19:28
Airport Bar Yehuda Airfield (LLMZ)

Arrival

Time 2026-04-12 19:49
Airport Bar Yehuda Airfield (LLMZ)
Time Latitude Longitude Altitude Speed Heading
2026-04-12 19:20 31.32913 35.38818 -1244 ft 0 kts 65°
2026-04-12 19:23 31.32921 35.38823 -1242 ft 0 kts 12°
2026-04-12 19:26 31.32935 35.38827 -1242 ft 0 kts 25°
2026-04-12 19:27 31.32953 35.38849 -1240 ft 12 kts 52°
2026-04-12 19:27 31.33075 35.38895 -1233 ft 26 kts
2026-04-12 19:27 31.33261 35.38929 -1229 ft 14 kts
2026-04-12 19:27 31.33281 35.38935 -1228 ft 8 kts 66°
2026-04-12 19:28 31.33170 35.38922 -1231 ft 42 kts 189°
2026-04-12 19:28 31.32722 35.38853 -1171 ft 78 kts 185°
2026-04-12 19:28 31.32192 35.38814 -900 ft 78 kts 184°
2026-04-12 19:28 31.31685 35.39014 -656 ft 83 kts 132°
2026-04-12 19:29 31.31410 35.39639 -503 ft 89 kts 111°
2026-04-12 19:29 31.31514 35.40340 -484 ft 96 kts 40°
2026-04-12 19:29 31.32137 35.40513 -461 ft 93 kts
2026-04-12 19:29 31.32775 35.40551 -486 ft 93 kts
2026-04-12 19:30 31.33408 35.40526 -522 ft 88 kts 355°
2026-04-12 19:30 31.34002 35.40488 -635 ft 83 kts 355°
2026-04-12 19:30 31.34541 35.40343 -743 ft 79 kts 323°
2026-04-12 19:30 31.34703 35.39787 -827 ft 70 kts 273°
2026-04-12 19:31 31.34544 35.39280 -946 ft 71 kts 214°
2026-04-12 19:31 31.34237 35.39122 -1012 ft 72 kts 193°
2026-04-12 19:31 31.33757 35.39040 -1115 ft 71 kts 188°
2026-04-12 19:31 31.33208 35.38938 -1231 ft 51 kts 189°
2026-04-12 19:32 31.32966 35.38887 -1236 ft 63 kts 189°
2026-04-12 19:32 31.32434 35.38814 -1122 ft 87 kts 185°
2026-04-12 19:32 31.31846 35.38805 -843 ft 88 kts 174°
2026-04-12 19:32 31.31369 35.39247 -626 ft 93 kts 111°
2026-04-12 19:33 31.31332 35.39962 -413 ft 92 kts 82°
2026-04-12 19:33 31.31547 35.40689 -447 ft 99 kts 38°
2026-04-12 19:33 31.32214 35.40800 -477 ft 102 kts 359°
2026-04-12 19:33 31.32928 35.40808 -498 ft 104 kts
2026-04-12 19:34 31.33639 35.40845 -488 ft 97 kts
2026-04-12 19:34 31.34272 35.40760 -679 ft 90 kts 336°
2026-04-12 19:34 31.34607 35.40261 -840 ft 74 kts 280°
2026-04-12 19:34 31.34570 35.39688 -950 ft 69 kts 253°
2026-04-12 19:35 31.34296 35.39243 -1027 ft 74 kts 212°
2026-04-12 19:35 31.33836 35.39048 -1100 ft 77 kts 188°
2026-04-12 19:35 31.33368 35.38965 -1200 ft 59 kts 192°
2026-04-12 19:35 31.32992 35.38891 -1240 ft 61 kts 190°
2026-04-12 19:36 31.32484 35.38805 -1045 ft 74 kts 186°
2026-04-12 19:36 31.31925 35.38762 -834 ft 83 kts 185°
2026-04-12 19:36 31.31354 35.38756 -564 ft 86 kts 176°
2026-04-12 19:36 31.30740 35.38852 -427 ft 92 kts 155°
2026-04-12 19:37 31.30377 35.39449 -364 ft 93 kts 106°
2026-04-12 19:37 31.30434 35.40154 -332 ft 92 kts 45°
2026-04-12 19:37 31.30981 35.40546 -365 ft 92 kts 26°
2026-04-12 19:37 31.31562 35.40757 -387 ft 85 kts
2026-04-12 19:38 31.32148 35.40823 -440 ft 88 kts
2026-04-12 19:38 31.32752 35.40840 -503 ft 85 kts 358°
2026-04-12 19:38 31.33321 35.40822 -578 ft 81 kts 355°
2026-04-12 19:38 31.33869 35.40749 -659 ft 80 kts 351°
2026-04-12 19:39 31.34297 35.40419 -747 ft 73 kts 288°
2026-04-12 19:39 31.34428 35.39882 -787 ft 65 kts 282°
2026-04-12 19:39 31.34487 35.39353 -825 ft 64 kts 260°
2026-04-12 19:39 31.34122 35.39080 -986 ft 69 kts 193°
2026-04-12 19:40 31.33666 35.39010 -1131 ft 63 kts 188°
2026-04-12 19:40 31.33230 35.38937 -1226 ft 58 kts 191°
2026-04-12 19:40 31.32855 35.38863 -1238 ft 66 kts 189°
2026-04-12 19:40 31.32322 35.38783 -1080 ft 83 kts 188°
2026-04-12 19:41 31.31746 35.38736 -805 ft 84 kts 185°
2026-04-12 19:41 31.31165 35.38726 -536 ft 85 kts 180°
2026-04-12 19:41 31.30566 35.38876 -469 ft 98 kts 143°
2026-04-12 19:41 31.30258 35.39578 -392 ft 98 kts 104°
2026-04-12 19:42 31.30228 35.40321 -307 ft 91 kts 62°
2026-04-12 19:42 31.30743 35.40652 -348 ft 86 kts
2026-04-12 19:42 31.31350 35.40706 -412 ft 90 kts
2026-04-12 19:43 31.32598 35.40759 -450 ft 90 kts 360°
2026-04-12 19:43 31.33222 35.40735 -520 ft 88 kts 356°
2026-04-12 19:43 31.33818 35.40684 -616 ft 82 kts 353°
2026-04-12 19:43 31.34336 35.40502 -726 ft 80 kts 314°
2026-04-12 19:44 31.34485 35.39907 -806 ft 72 kts 273°
2026-04-12 19:44 31.34463 35.39344 -920 ft 69 kts 239°
2026-04-12 19:44 31.34045 35.39090 -1069 ft 70 kts 189°
2026-04-12 19:44 31.33600 35.39013 -1172 ft 62 kts 190°
2026-04-12 19:45 31.33116 35.38946 -1141 ft 83 kts 192°
2026-04-12 19:45 31.32498 35.38814 -936 ft 91 kts 193°
2026-04-12 19:45 31.31854 35.38665 -669 ft 89 kts 194°
2026-04-12 19:45 31.31256 35.38587 -442 ft 93 kts 171°
2026-04-12 19:46 31.30818 35.39110 -366 ft 95 kts 108°
2026-04-12 19:46 31.30690 35.39860 -356 ft 96 kts 90°
2026-04-12 19:46 31.31028 35.40469 -430 ft 95 kts 26°
2026-04-12 19:46 31.31637 35.40671 -484 ft 91 kts
2026-04-12 19:47 31.32288 35.40733 -534 ft 95 kts
2026-04-12 19:47 31.32965 35.40775 -564 ft 99 kts
2026-04-12 19:47 31.33589 35.40808 -590 ft 82 kts
2026-04-12 19:47 31.34148 35.40773 -713 ft 82 kts 344°
2026-04-12 19:48 31.34597 35.40401 -809 ft 79 kts 300°
2026-04-12 19:48 31.34664 35.39770 -868 ft 74 kts 268°
2026-04-12 19:48 31.34479 35.39256 -937 ft 72 kts 216°
2026-04-12 19:48 31.33999 35.39087 -1050 ft 68 kts 192°
2026-04-12 19:49 31.33544 35.39002 -1170 ft 65 kts 195°
2026-04-12 19:49 31.33126 35.38917 -1232 ft 55 kts 191°
2026-04-12 19:49 31.32935 35.38860 -1237 ft 0 kts 251°
2026-04-12 19:49 31.32929 35.38836 -1238 ft 5 kts 260°
2026-04-12 19:50 31.32929 35.38819 -1238 ft 0 kts 275°
2026-04-12 20:15 31.32913 35.38818 -1238 ft 0 kts 64°
2026-04-12 20:18 31.32916 35.38823 -1244 ft 1 kts 44°
2026-04-12 20:18 31.32924 35.38827 -1242 ft 0 kts
2026-04-12 20:19 31.32937 35.38830 -1237 ft 11 kts 22°
2026-04-12 20:19 31.33069 35.38903 -1233 ft 30 kts
2026-04-12 20:20 31.33268 35.38936 -1229 ft 22 kts
2026-04-12 20:20 31.33317 35.38953 -1227 ft 10 kts 189°
2026-04-12 20:20 31.33305 35.38951 -1227 ft 10 kts 188°
2026-04-12 20:20 31.33022 35.38894 -1232 ft 68 kts 190°
2026-04-12 20:21 31.32514 35.38856 -1013 ft 74 kts 182°
2026-04-12 20:21 31.31994 35.38860 -748 ft 74 kts 181°
2026-04-12 20:21 31.31481 35.38864 -501 ft 75 kts 184°
2026-04-12 20:21 31.30942 35.38998 -517 ft 91 kts 138°
2026-04-12 20:22 31.30669 35.39664 -435 ft 90 kts 109°
2026-04-12 20:22 31.30584 35.40388 -463 ft 95 kts 72°
2026-04-12 20:22 31.31079 35.40800 -478 ft 95 kts
2026-04-12 20:22 31.31700 35.40814 -411 ft 90 kts 357°
2026-04-12 20:23 31.32337 35.40787 -408 ft 91 kts 356°
2026-04-12 20:23 31.32988 35.40793 -454 ft 95 kts
2026-04-12 20:23 31.33631 35.40838 -483 ft 88 kts
2026-04-12 20:23 31.34197 35.40816 -507 ft 80 kts 347°
2026-04-12 20:24 31.34606 35.40411 -635 ft 82 kts 287°
2026-04-12 20:24 31.34626 35.39795 -717 ft 70 kts 271°
2026-04-12 20:24 31.34566 35.39251 -848 ft 70 kts 230°
2026-04-12 20:24 31.34091 35.39103 -1001 ft 67 kts 189°
2026-04-12 20:25 31.33665 35.39023 -1151 ft 61 kts 190°
2026-04-12 20:25 31.33256 35.38945 -1227 ft 53 kts 193°
2026-04-12 20:25 31.32916 35.38873 -1247 ft 62 kts 190°
2026-04-12 20:25 31.32385 35.38782 -1088 ft 78 kts 188°
2026-04-12 20:26 31.31848 35.38736 -833 ft 78 kts 183°
2026-04-12 20:26 31.31309 35.38733 -611 ft 82 kts 184°
2026-04-12 20:26 31.30805 35.39035 -454 ft 92 kts 117°
2026-04-12 20:26 31.30760 35.39801 -304 ft 94 kts 90°
2026-04-12 20:27 31.30845 35.40542 -306 ft 95 kts 59°
2026-04-12 20:27 31.31424 35.40844 -337 ft 94 kts
2026-04-12 20:27 31.32070 35.40926 -338 ft 88 kts
2026-04-12 20:27 31.32681 35.40956 -393 ft 87 kts
2026-04-12 20:28 31.33272 35.40958 -442 ft 81 kts 357°
2026-04-12 20:28 31.33830 35.40918 -560 ft 81 kts 354°
2026-04-12 20:28 31.34341 35.40698 -674 ft 80 kts 312°
2026-04-12 20:28 31.34534 35.40108 -790 ft 78 kts 277°
2026-04-12 20:29 31.34531 35.39510 -901 ft 72 kts 236°
2026-04-12 20:29 31.34163 35.39174 -1020 ft 66 kts 208°
2026-04-12 20:29 31.33712 35.39029 -1151 ft 68 kts 191°
2026-04-12 20:29 31.33261 35.38946 -1225 ft 61 kts 191°
2026-04-12 20:30 31.32933 35.38882 -1237 ft 24 kts 189°
2026-04-12 20:30 31.32924 35.38851 -1243 ft 9 kts 341°
2026-04-12 20:30 31.32972 35.38822 -1248 ft 6 kts 313°
2026-04-12 20:30 31.32987 35.38812 -1241 ft 0 kts